QPF
0.00 0.00 0.00 0.00 0.00 0.00 0.00 0.00 0.00 0.00 0.00 0.00 0.00 0.00 0.00 0.00 0.00 0.00 0.00 0.00 0.00 0.00 0.00 0.00 0.00 0.00 0.00 0.00 0.00 0.00 0.00 0.00 0.00 0.00 0.02 0.03 0.03 0.02 0.01 0.00 0.00 0.00 0.00
0.00 0.00 0.00 0.00 0.00 0.00 0.00 0.00 0.00 0.00 0.00 0.00 0.00 0.00 0.00 0.00 0.00 0.00 0.00 0.00 0.00 0.00 0.00 0.00 0.00 0.00 0.00 0.00 0.00 0.00 0.00 0.00 0.00 0.00 0.00 0.01 0.04 0.03 0.00 0.00 0.01 0.00 0.00
0.00 0.00 0.00 0.00 0.00 0.00 0.00 0.00 0.00 0.00 0.00 0.00 0.00 0.00 0.00 0.00 0.00 0.00 0.00 0.00 0.00 0.00 0.00 0.00 0.00 0.00 0.00 0.00 0.00 0.00 0.00 0.00 0.00 0.00 0.00 0.00 0.01 0.02 0.01 0.01 0.06 0.00 0.00
0.00 0.00 0.00 0.00 0.00 0.00 0.00 0.00 0.00 0.00 0.00 0.00 0.00 0.00 0.00 0.00 0.00 0.00 0.00 0.00 0.00 0.00 0.00 0.00 0.00 0.00 0.00 0.00 0.00 0.00 0.00 0.00 0.00 0.00 0.00 0.00 0.00 0.00 0.02 0.08 0.13 0.04 0.02
0.00 0.00 0.00 0.00 0.00 0.00 0.00 0.00 0.00 0.00 0.00 0.00 0.00 0.00 0.00 0.00 0.00 0.00 0.00 0.00 0.00 0.00 0.00 0.00 0.00 0.00 0.00 0.00 0.00 0.00 0.00 0.00 0.00 0.00 0.00 0.00 0.00 0.01 0.05 0.06 0.05 0.00 0.01
0.00 0.00 0.00 0.00 0.00 0.00 0.00 0.00 0.00 0.00 0.00 0.00 0.00 0.00 0.00 0.00 0.00 0.00 0.00 0.00 0.00 0.00 0.00 0.00 0.00 0.00 0.00 0.00 0.00 0.00 0.00 0.00 0.00 0.00 0.00 0.00 0.00 0.00 0.00 0.00 0.00 0.00 0.00
0.00 0.00 0.00 0.00 0.00 0.00 0.00 0.00 0.00 0.00 0.00 0.00 0.00 0.00 0.00 0.00 0.00 0.00 0.00 0.00 0.00 0.00 0.00 0.00 0.00 0.00 0.00 0.00 0.00 0.00 0.00 0.00 0.00 0.00 0.00 0.00 0.00 0.01 0.01 0.00 0.00 0.00 0.00
0.00 0.00 0.00 0.00 0.00 0.00 0.00 0.00 0.00 0.00 0.00 0.00 0.00 0.00 0.00 0.00 0.00 0.00 0.00 0.00 0.00 0.00 0.00 0.00 0.00 0.00 0.01 0.00 0.00 0.00 0.00 0.00 0.00 0.00 0.00 0.00 0.00 0.00 0.00 0.00 0.00 0.00 0.00
0.00 0.00 0.00 0.00 0.00 0.00 0.00 0.00 0.00 0.00 0.00 0.00 0.00 0.00 0.00 0.00 0.00 0.00 0.00 0.00 0.00 0.00 0.00 0.00 0.00 0.00 0.01 0.00 0.00 0.00 0.00 0.00 0.00 0.00 0.00 0.00 0.00 0.01 0.01 0.00 0.00 0.00 0.00
0.00 0.00 0.00 0.00 0.00 0.00 0.00 0.00 0.00 0.00 0.00 0.00 0.00 0.00 0.00 0.00 0.00 0.00 0.00 0.00 0.00 0.00 0.00 0.00 0.00 0.00 0.00 0.00 0.00 0.00 0.00 0.00 0.00 0.00 0.00 0.00 0.00 0.00 0.01 0.01 0.02 0.01 0.01
0.00 0.00 0.00 0.00 0.00 0.00 0.00 0.00 0.00 0.00 0.00 0.00 0.00 0.00 0.00 0.00 0.00 0.00 0.00 0.00 0.00 0.00 0.00 0.00 0.00 0.00 0.00 0.00 0.00 0.00 0.00 0.00 0.00 0.00 0.00 0.00 0.00 0.00 0.00 0.01 0.02 0.02 0.02
0.00 0.00 0.00 0.00 0.00 0.00 0.00 0.00 0.00 0.00 0.00 0.00 0.00 0.00 0.00 0.00 0.00 0.00 0.00 0.00 0.00 0.00 0.00 0.00 0.00 0.00 0.00 0.00 0.00 0.00 0.00 0.00 0.00 0.00 0.00 0.00 0.00 0.00 0.00 0.00 0.00 0.00 0.01
0.00 0.00 0.00 0.00 0.00 0.00 0.00 0.00 0.00 0.00 0.00 0.00 0.00 0.00 0.00 0.00 0.00 0.00 0.00 0.00 0.00 0.00 0.00 0.00 0.00 0.00 0.00 0.00 0.00 0.00 0.00 0.00 0.00 0.00 0.00 0.00 0.00 0.00 0.00 0.00 0.00 0.00 0.01
0.00 0.00 0.00 0.00 0.00 0.00 0.00 0.00 0.00 0.00 0.00 0.00 0.00 0.00 0.00 0.00 0.00 0.00 0.00 0.00 0.00 0.00 0.00 0.00 0.00 0.00 0.00 0.00 0.00 0.00 0.00 0.00 0.00 0.00 0.00 0.00 0.00 0.00 0.00 0.00 0.00 0.00 0.00
0.00 0.00 0.00 0.00 0.00 0.00 0.00 0.00 0.00 0.00 0.00 0.00 0.00 0.00 0.00 0.00 0.00 0.00 0.00 0.00 0.00 0.00 0.00 0.00 0.00 0.00 0.00 0.00 0.00 0.00 0.00 0.00 0.00 0.00 0.00 0.00 0.00 0.00 0.00 0.00 0.00 0.00 0.00
0.00 0.00 0.00 0.00 0.00 0.00 0.00 0.00 0.00 0.00 0.00 0.00 0.00 0.00 0.00 0.00 0.00 0.00 0.00 0.00 0.00 0.00 0.00 0.00 0.00 0.00 0.00 0.00 0.00 0.00 0.00 0.00 0.00 0.00 0.00 0.00 0.00 0.00 0.00 0.00 0.00 0.00 0.00
0.00 0.00 0.00 0.00 0.00 0.00 0.00 0.00 0.00 0.00 0.00 0.00 0.00 0.00 0.00 0.00 0.00 0.00 0.00 0.00 0.00 0.00 0.00 0.00 0.00 0.00 0.00 0.00 0.00 0.00 0.00 0.00 0.00 0.00 0.00 0.00 0.00 0.00 0.00 0.00 0.00 0.00 0.00
0.00 0.00 0.00 0.00 0.00 0.00 0.00 0.00 0.00 0.00 0.00 0.00 0.00 0.00 0.00 0.00 0.00 0.00 0.00 0.00 0.00 0.00 0.00 0.00 0.00 0.00 0.00 0.00 0.00 0.00 0.00 0.00 0.00 0.00 0.00 0.00 0.00 0.00 0.00 0.00 0.00 0.00 0.00
0.00 0.00 0.00 0.00 0.00 0.00 0.00 0.00 0.00 0.00 0.00 0.00 0.00 0.00 0.00 0.00 0.00 0.00 0.00 0.00 0.00 0.00 0.00 0.00 0.00 0.00 0.00 0.00 0.00 0.00 0.00 0.00 0.00 0.00 0.00 0.00 0.00 0.00 0.00 0.00 0.00 0.00 0.00
0.00 0.00 0.00 0.00 0.00 0.00 0.00 0.00 0.00 0.00 0.00 0.00 0.00 0.00 0.00 0.00 0.00 0.00 0.00 0.00 0.00 0.00 0.00 0.00 0.00 0.00 0.00 0.00 0.00 0.00 0.00 0.00 0.00 0.00 0.00 0.00 0.00 0.00 0.00 0.00 0.00 0.00 0.00
0.00 0.00 0.00 0.00 0.00 0.00 0.00 0.00 0.00 0.00 0.00 0.00 0.00 0.00 0.00 0.00 0.00 0.00 0.00 0.00 0.00 0.00 0.00 0.00 0.00 0.00 0.00 0.00 0.00 0.00 0.00 0.00 0.00 0.00 0.00 0.00 0.00 0.00 0.00 0.00 0.00 0.00 0.00
0.00 0.00 0.00 0.00 0.00 0.00 0.00 0.00 0.00 0.00 0.00 0.00 0.00 0.00 0.00 0.00 0.00 0.00 0.00 0.00 0.00 0.00 0.00 0.00 0.00 0.00 0.00 0.00 0.00 0.00 0.00 0.00 0.00 0.00 0.00 0.00 0.00 0.00 0.00 0.00 0.00 0.00 0.00
0.00 0.00 0.00 0.00 0.00 0.00 0.00 0.00 0.00 0.00 0.00 0.00 0.00 0.00 0.00 0.00 0.00 0.00 0.00 0.00 0.00 0.00 0.00 0.00 0.00 0.00 0.00 0.00 0.00 0.00 0.00 0.00 0.00 0.00 0.00 0.00 0.00 0.00 0.00 0.00 0.00 0.00 0.00
0.00 0.00 0.00 0.00 0.00 0.00 0.00 0.00 0.00 0.00 0.00 0.00 0.00 0.00 0.00 0.00 0.00 0.00 0.00 0.00 0.00 0.00 0.00 0.00 0.00 0.00 0.00 0.00 0.00 0.00 0.00 0.00 0.00 0.00 0.00 0.00 0.00 0.00 0.00 0.00 0.00 0.00 0.00
0.00 0.00 0.00 0.00 0.00 0.00 0.00 0.00 0.00 0.00 0.00 0.00 0.00 0.00 0.00 0.00 0.00 0.00 0.00 0.00 0.00 0.00 0.00 0.00 0.00 0.00 0.00 0.00 0.00 0.00 0.00 0.00 0.00 0.00 0.00 0.00 0.00 0.00 0.00 0.00 0.00 0.00 0.00
0.00 0.00 0.00 0.00 0.00 0.00 0.00 0.00 0.00 0.00 0.00 0.00 0.00 0.00 0.00 0.00 0.00 0.00 0.00 0.00 0.00 0.00 0.00 0.00 0.00 0.00 0.00 0.00 0.00 0.00 0.00 0.00 0.00 0.00 0.00 0.00 0.00 0.00 0.00 0.00 0.00 0.00 0.00
MSLP
1013.86 1013.70 1013.70 1013.93 1014.21 1014.31 1014.41 1014.48 1014.54 1014.64 1014.78 1014.82 1014.79 1014.81 1014.77 1014.78 1014.72 1014.61 1014.53 1014.62 1014.56 1014.48 1014.38 1014.36 1014.44 1014.45 1014.47 1014.48 1014.45 1014.51 1014.57 1014.65 1014.83 1014.94 1015.00 1015.08 1015.16 1015.22 1015.30 1015.43 1015.59 1015.62 1015.68
1012.97 1013.52 1013.62 1013.88 1014.14 1014.31 1014.41 1014.55 1014.66 1014.84 1014.92 1014.95 1015.03 1015.03 1015.00 1014.99 1014.93 1014.89 1014.78 1014.80 1014.85 1014.75 1014.71 1014.65 1014.63 1014.69 1014.77 1014.83 1014.85 1014.87 1014.88 1015.01 1015.13 1015.20 1015.35 1015.53 1015.56 1015.67 1015.79 1015.86 1015.94 1015.87 1015.95
1013.00 1013.36 1013.67 1013.90 1014.16 1014.35 1014.50 1014.66 1014.79 1014.98 1015.11 1015.16 1015.19 1015.24 1015.22 1015.16 1015.10 1015.16 1014.99 1014.94 1015.02 1015.07 1014.98 1014.98 1014.95 1014.90 1015.02 1015.13 1015.18 1015.18 1015.20 1015.21 1015.32 1015.47 1015.62 1015.79 1015.88 1015.87 1016.00 1016.11 1016.12 1016.06 1016.22
1012.68 1013.21 1013.56 1013.84 1014.17 1014.34 1014.56 1014.82 1014.98 1015.06 1015.17 1015.25 1015.33 1015.37 1015.41 1015.35 1015.27 1015.31 1015.27 1015.18 1015.18 1015.26 1015.30 1015.25 1015.22 1015.17 1015.20 1015.30 1015.27 1015.26 1015.38 1015.45 1015.57 1015.70 1015.86 1015.88 1015.93 1016.07 1016.22 1016.35 1016.29 1016.28 1016.42
1012.86 1013.06 1013.49 1013.70 1014.15 1014.47 1014.73 1014.97 1015.13 1015.21 1015.25 1015.38 1015.49 1015.51 1015.55 1015.52 1015.50 1015.61 1015.49 1015.29 1015.31 1015.36 1015.48 1015.54 1015.53 1015.44 1015.43 1015.43 1015.45 1015.40 1015.39 1015.62 1015.85 1016.01 1016.17 1016.23 1016.20 1016.19 1016.41 1016.55 1016.56 1016.60 1016.67
1013.06 1013.36 1013.60 1013.88 1014.22 1014.50 1014.76 1015.06 1015.25 1015.39 1015.48 1015.55 1015.65 1015.74 1015.82 1015.83 1015.90 1016.00 1015.80 1015.73 1015.71 1015.87 1015.81 1015.79 1015.85 1015.75 1015.75 1015.65 1015.56 1015.65 1015.74 1015.96 1016.27 1016.42 1016.40 1016.37 1016.55 1016.51 1016.53 1016.64 1016.76 1016.79 1016.83
1013.05 1013.23 1013.49 1013.83 1014.16 1014.38 1014.72 1015.01 1015.31 1015.58 1015.74 1015.81 1015.81 1015.96 1016.07 1016.10 1016.22 1016.34 1016.34 1016.26 1016.20 1016.18 1016.21 1016.24 1016.15 1016.02 1015.99 1015.99 1015.91 1015.92 1016.04 1016.32 1016.65 1016.75 1016.66 1016.67 1016.67 1016.62 1016.69 1016.73 1016.79 1016.87 1016.89
1013.02 1013.32 1013.36 1013.35 1013.67 1014.04 1014.44 1014.88 1015.26 1015.59 1015.83 1015.99 1016.07 1016.18 1016.30 1016.38 1016.46 1016.60 1016.72 1016.63 1016.56 1016.48 1016.54 1016.58 1016.33 1016.12 1016.27 1016.29 1016.25 1016.18 1016.33 1016.61 1016.90 1016.94 1016.87 1016.87 1016.74 1016.75 1016.84 1016.94 1016.99 1016.97 1016.99
1012.84 1013.17 1013.33 1013.55 1013.81 1014.09 1014.43 1014.76 1015.10 1015.44 1015.74 1015.97 1016.18 1016.28 1016.44 1016.57 1016.67 1016.81 1016.89 1016.95 1016.92 1016.87 1016.92 1016.83 1016.67 1016.41 1016.54 1016.59 1016.60 1016.53 1016.66 1016.89 1017.07 1016.97 1016.96 1017.01 1016.94 1016.89 1016.96 1017.06 1017.06 1017.08 1017.08
1013.19 1013.17 1013.34 1013.54 1013.85 1014.21 1014.49 1014.74 1015.07 1015.27 1015.51 1015.76 1016.02 1016.32 1016.50 1016.77 1016.92 1016.99 1017.15 1017.25 1017.22 1017.17 1017.13 1017.17 1017.02 1016.88 1016.89 1016.98 1017.00 1016.97 1017.06 1017.16 1017.26 1017.11 1017.21 1017.21 1017.20 1017.12 1017.07 1017.11 1017.10 1017.11 1017.13
1013.60 1013.55 1013.53 1013.69 1013.87 1014.11 1014.37 1014.53 1014.80 1015.12 1015.35 1015.66 1015.96 1016.25 1016.54 1016.97 1017.20 1017.27 1017.37 1017.43 1017.47 1017.46 1017.40 1017.38 1017.32 1017.23 1017.23 1017.26 1017.22 1017.17 1017.38 1017.59 1017.60 1017.48 1017.45 1017.36 1017.32 1017.31 1017.31 1017.37 1017.34 1017.26 1017.28
1013.51 1013.45 1013.57 1013.66 1013.80 1014.11 1014.18 1014.36 1014.57 1014.89 1015.28 1015.70 1016.03 1016.36 1016.77 1017.08 1017.34 1017.51 1017.62 1017.54 1017.56 1017.61 1017.63 1017.57 1017.61 1017.55 1017.58 1017.77 1017.78 1017.60 1017.72 1017.84 1017.93 1017.93 1017.70 1017.52 1017.54 1017.50 1017.51 1017.48 1017.50 1017.51 1017.46
1014.55 1013.70 1013.24 1013.45 1013.67 1013.93 1013.99 1014.24 1014.48 1014.69 1014.94 1015.36 1015.83 1016.29 1016.69 1017.08 1017.40 1017.57 1017.85 1017.98 1018.04 1017.93 1018.20 1018.13 1018.14 1018.11 1017.98 1018.03 1018.02 1018.07 1018.11 1018.20 1018.27 1018.28 1018.06 1017.88 1017.85 1017.91 1018.11 1018.11 1017.94 1017.96 1017.97
1014.45 1014.25 1014.43 1014.55 1014.20 1013.84 1013.88 1013.98 1014.16 1014.52 1014.64 1014.98 1015.27 1015.61 1016.12 1016.69 1017.15 1017.49 1017.83 1018.03 1018.23 1018.30 1018.43 1018.50 1018.55 1018.41 1018.24 1018.19 1018.20 1018.28 1018.39 1018.50 1018.56 1018.56 1018.46 1018.25 1018.14 1018.11 1018.37 1018.40 1018.32 1018.33 1018.32
1015.16 1014.86 1014.25 1013.90 1014.19 1014.44 1014.57 1014.05 1013.91 1014.08 1014.38 1014.65 1015.05 1015.28 1015.55 1015.93 1016.43 1016.82 1017.21 1017.63 1017.96 1018.19 1018.43 1018.61 1018.65 1018.56 1018.42 1018.38 1018.47 1018.49 1018.60 1018.69 1018.71 1018.74 1018.78 1018.50 1018.46 1018.46 1018.54 1018.56 1018.52 1018.49 1018.53
1016.22 1015.38 1014.52 1013.77 1013.34 1013.49 1014.27 1014.61 1015.01 1015.21 1015.38 1015.51 1015.45 1015.14 1015.38 1015.87 1016.21 1016.58 1016.99 1017.22 1017.49 1017.72 1018.01 1018.34 1018.61 1018.73 1018.76 1018.70 1018.63 1018.67 1018.74 1018.85 1018.90 1018.91 1018.92 1018.84 1018.69 1018.69 1018.70 1018.74 1018.71 1018.66 1018.61
1016.86 1016.26 1015.16 1014.50 1013.96 1014.05 1014.21 1014.22 1014.49 1014.85 1014.97 1015.29 1015.48 1015.78 1016.24 1015.84 1015.94 1016.16 1016.50 1016.89 1016.88 1017.19 1017.55 1018.04 1018.37 1018.63 1018.85 1018.80 1018.84 1018.87 1018.92 1018.98 1018.96 1019.00 1018.99 1018.99 1018.86 1018.78 1018.82 1018.88 1018.88 1018.88 1018.86
1017.49 1016.95 1016.45 1015.82 1015.21 1014.93 1014.68 1014.39 1014.23 1014.43 1014.75 1015.04 1015.26 1015.60 1015.71 1015.69 1015.83 1016.09 1016.22 1016.22 1016.45 1016.86 1017.17 1017.66 1018.15 1018.54 1018.78 1018.98 1019.06 1018.98 1019.04 1019.07 1019.01 1019.01 1019.01 1019.08 1019.07 1018.99 1018.87 1018.88 1018.88 1018.96 1019.01
1018.21 1017.81 1017.18 1016.68 1016.15 1015.75 1015.48 1015.10 1014.84 1014.65 1014.59 1014.52 1014.71 1014.99 1015.13 1015.52 1015.82 1015.78 1015.71 1015.71 1016.20 1016.71 1016.98 1017.25 1017.69 1018.01 1018.55 1018.78 1018.95 1018.97 1019.04 1019.11 1018.97 1018.85 1018.97 1019.02 1019.03 1018.97 1019.04 1018.86 1018.83 1018.89 1018.94
1018.58 1018.15 1017.79 1017.42 1017.14 1016.66 1016.24 1015.71 1015.38 1015.02 1014.91 1014.85 1014.78 1014.58 1014.63 1014.86 1015.29 1015.83 1015.72 1015.53 1016.04 1016.56 1016.76 1017.18 1017.38 1017.68 1017.89 1018.28 1018.61 1018.75 1018.86 1018.84 1018.90 1018.88 1018.73 1018.72 1018.83 1018.86 1018.91 1018.96 1019.04 1019.03 1018.82
1019.01 1018.59 1018.18 1017.80 1017.58 1017.29 1016.86 1016.56 1016.16 1016.06 1015.69 1015.35 1014.99 1014.73 1014.62 1014.54 1014.54 1015.02 1015.39 1015.52 1015.54 1016.00 1016.22 1016.41 1016.95 1017.54 1017.96 1018.04 1018.73 1018.94 1018.76 1018.43 1018.51 1018.51 1018.44 1018.57 1018.62 1018.56 1018.72 1018.79 1018.92 1019.04 1019.04
1019.55 1019.20 1018.74 1018.45 1017.98 1017.66 1017.41 1017.21 1016.93 1016.56 1016.16 1015.87 1015.34 1014.85 1014.66 1014.57 1014.39 1014.39 1014.58 1014.93 1015.38 1015.39 1015.53 1016.08 1016.40 1016.99 1017.48 1017.83 1018.47 1019.35 1019.31 1018.63 1018.23 1017.97 1018.15 1018.28 1018.33 1018.30 1018.41 1018.40 1018.62 1018.76 1018.84
1019.79 1019.45 1019.06 1018.67 1018.31 1018.12 1017.90 1017.57 1017.18 1016.83 1016.54 1016.15 1015.65 1015.13 1014.85 1014.57 1014.32 1014.31 1014.28 1014.36 1014.64 1015.09 1014.54 1014.91 1015.43 1016.03 1016.72 1017.38 1017.42 1018.00 1019.10 1019.02 1018.75 1018.03 1017.95 1017.96 1018.01 1018.17 1018.06 1018.04 1018.18 1018.35 1018.48
1020.02 1019.49 1019.14 1018.77 1018.36 1018.06 1017.95 1017.94 1017.90 1017.64 1017.32 1016.64 1016.16 1015.67 1015.22 1014.69 1014.27 1014.17 1014.15 1013.95 1014.09 1014.25 1014.67 1014.16 1014.19 1014.77 1015.50 1016.59 1017.48 1017.23 1017.42 1017.66 1018.38 1018.51 1017.97 1017.78 1017.78 1017.85 1017.76 1017.84 1017.80 1017.92 1018.06
1019.96 1019.66 1019.20 1018.78 1018.39 1018.05 1017.69 1017.59 1017.73 1017.59 1017.33 1016.65 1016.12 1015.67 1015.15 1014.78 1014.42 1013.94 1013.84 1013.83 1013.70 1013.52 1013.67 1013.70 1013.75 1013.86 1014.16 1014.79 1015.39 1016.50 1017.26 1017.66 1017.91 1018.31 1018.27 1017.96 1017.86 1017.42 1017.40 1017.52 1017.51 1017.66 1017.75
1019.91 1019.61 1019.21 1018.86 1018.45 1018.03 1017.72 1017.35 1017.20 1017.17 1017.01 1016.76 1016.32 1016.03 1015.47 1014.95 1014.47 1014.08 1013.60 1013.55 1013.44 1013.23 1013.01 1012.99 1012.89 1013.12 1013.09 1013.48 1014.11 1014.64 1015.47 1016.53 1017.15 1017.49 1018.10 1017.91 1017.76 1017.39 1017.28 1017.31 1017.39 1017.41 1017.49
Thickness
5797 5797 5795 5792 5788 5785 5783 5780 5779 5776 5774 5772 5770 5768 5767 5765 5764 5764 5763 5761 5760 5760 5760 5758 5755 5753 5752 5751 5750 5749 5747 5745 5742 5740 5739 5737 5735 5734 5733 5731 5730 5729 5728
5806 5800 5796 5793 5790 5787 5784 5782 5780 5777 5774 5772 5770 5768 5767 5765 5764 5763 5762 5761 5759 5759 5758 5757 5756 5753 5751 5749 5748 5747 5746 5743 5741 5740 5738 5735 5733 5731 5729 5728 5726 5727 5726
5806 5801 5796 5793 5790 5787 5784 5782 5779 5776 5774 5772 5770 5768 5767 5766 5765 5762 5762 5760 5759 5757 5757 5756 5755 5753 5750 5748 5746 5745 5744 5743 5741 5739 5737 5735 5732 5731 5729 5726 5725 5725 5723
5807 5801 5797 5793 5790 5787 5784 5781 5778 5776 5774 5771 5770 5768 5766 5764 5763 5762 5761 5760 5758 5756 5755 5755 5753 5752 5751 5748 5747 5746 5745 5743 5741 5739 5737 5736 5734 5731 5729 5727 5726 5725 5723
5805 5802 5797 5794 5789 5785 5781 5778 5777 5775 5773 5771 5768 5767 5766 5764 5762 5760 5760 5760 5758 5755 5754 5753 5752 5751 5750 5749 5747 5746 5746 5743 5740 5739 5736 5735 5733 5731 5729 5727 5726 5724 5723
5801 5797 5794 5790 5786 5783 5780 5777 5774 5772 5771 5769 5767 5764 5762 5761 5759 5756 5757 5756 5755 5751 5751 5751 5749 5749 5748 5747 5746 5745 5743 5740 5738 5737 5736 5733 5731 5730 5728 5727 5726 5725 5723
5798 5795 5791 5788 5784 5782 5779 5776 5772 5769 5766 5764 5764 5761 5759 5758 5755 5753 5752 5751 5750 5749 5747 5746 5745 5746 5745 5744 5743 5742 5740 5738 5735 5733 5734 5732 5730 5729 5728 5727 5726 5724 5724
5792 5790 5790 5790 5787 5783 5779 5774 5770 5766 5763 5761 5759 5757 5756 5754 5752 5750 5747 5747 5746 5746 5744 5742 5743 5744 5741 5740 5740 5739 5737 5734 5732 5731 5731 5730 5729 5728 5726 5725 5724 5724 5723
5790 5788 5788 5785 5782 5778 5774 5771 5768 5765 5762 5759 5756 5755 5752 5750 5748 5746 5744 5743 5742 5742 5740 5739 5739 5740 5738 5737 5736 5734 5732 5731 5730 5730 5728 5727 5726 5726 5724 5723 5723 5722 5721
5788 5786 5784 5782 5778 5773 5770 5767 5765 5763 5761 5758 5755 5751 5748 5745 5743 5741 5739 5737 5737 5736 5735 5734 5734 5735 5734 5732 5730 5729 5728 5727 5726 5727 5725 5723 5722 5722 5722 5721 5720 5720 5719
5781 5780 5776 5774 5773 5772 5769 5766 5763 5760 5757 5754 5751 5748 5744 5741 5738 5736 5735 5732 5730 5730 5730 5729 5728 5729 5729 5728 5727 5726 5724 5723 5722 5722 5721 5719 5718 5718 5717 5716 5716 5716 5716
5776 5776 5774 5771 5769 5767 5766 5763 5761 5757 5753 5749 5746 5743 5740 5737 5734 5731 5728 5727 5726 5725 5724 5723 5722 5722 5723 5723 5722 5721 5720 5719 5717 5716 5716 5715 5714 5714 5713 5712 5712 5711 5711
5765 5771 5774 5769 5766 5763 5761 5758 5756 5754 5751 5747 5742 5739 5736 5731 5728 5726 5724 5722 5720 5719 5717 5716 5716 5716 5716 5717 5716 5715 5713 5712 5712 5711 5709 5709 5708 5707 5705 5705 5705 5705 5704
5760 5761 5760 5757 5759 5759 5756 5755 5753 5749 5747 5744 5742 5738 5733 5728 5723 5720 5718 5716 5714 5713 5711 5710 5709 5709 5709 5710 5710 5709 5707 5705 5705 5704 5703 5703 5703 5702 5699 5698 5699 5698 5698
5746 5750 5755 5759 5753 5749 5747 5749 5747 5745 5742 5739 5736 5733 5731 5727 5723 5719 5716 5713 5710 5707 5705 5703 5702 5702 5702 5702 5702 5701 5700 5699 5698 5697 5696 5696 5695 5695 5694 5693 5692 5692 5692
5732 5738 5746 5752 5755 5751 5743 5738 5734 5730 5726 5725 5725 5726 5724 5719 5716 5712 5709 5707 5705 5703 5700 5697 5695 5693 5692 5693 5693 5693 5692 5691 5690 5690 5689 5689 5688 5688 5687 5687 5687 5686 5686
5721 5725 5732 5737 5741 5740 5738 5735 5731 5727 5723 5719 5715 5712 5709 5711 5709 5706 5704 5701 5700 5698 5694 5690 5687 5685 5683 5683 5683 5683 5684 5684 5683 5682 5682 5682 5681 5681 5681 5680 5680 5679 5678
5710 5713 5715 5719 5722 5723 5723 5724 5724 5721 5717 5712 5708 5704 5702 5702 5700 5698 5696 5695 5693 5690 5688 5684 5680 5676 5674 5673 5672 5674 5675 5674 5675 5675 5675 5674 5674 5674 5674 5674 5674 5673 5672
5697 5698 5701 5703 5705 5707 5708 5709 5709 5708 5707 5706 5703 5699 5696 5691 5688 5689 5688 5688 5684 5680 5679 5677 5673 5671 5667 5665 5664 5665 5666 5666 5667 5667 5667 5667 5667 5667 5667 5668 5668 5667 5666
5685 5686 5687 5687 5686 5688 5690 5692 5693 5694 5693 5691 5691 5691 5689 5686 5680 5675 5676 5677 5673 5670 5668 5665 5665 5663 5662 5659 5658 5657 5657 5659 5660 5661 5661 5661 5661 5660 5661 5661 5661 5660 5660
5672 5673 5674 5674 5672 5671 5673 5673 5674 5674 5676 5677 5678 5678 5677 5676 5675 5670 5666 5664 5664 5662 5662 5660 5656 5653 5650 5649 5646 5645 5647 5651 5653 5654 5655 5655 5654 5655 5654 5654 5654 5653 5653
5656 5657 5658 5658 5658 5657 5656 5655 5656 5656 5657 5658 5660 5663 5664 5664 5665 5664 5662 5657 5653 5653 5652 5649 5648 5644 5641 5638 5635 5628 5635 5642 5645 5647 5648 5648 5647 5649 5648 5648 5648 5647 5647
5644 5643 5643 5642 5641 5640 5637 5636 5637 5639 5639 5639 5640 5642 5644 5647 5649 5650 5650 5650 5647 5644 5648 5645 5641 5637 5633 5628 5631 5629 5618 5625 5627 5636 5639 5640 5641 5640 5642 5642 5642 5641 5642
5628 5627 5626 5624 5624 5624 5620 5617 5614 5613 5614 5617 5619 5621 5622 5625 5630 5631 5632 5635 5636 5635 5633 5638 5638 5634 5627 5622 5615 5622 5623 5625 5624 5629 5629 5630 5632 5633 5634 5635 5635 5635 5635
5610 5608 5606 5606 5605 5605 5605 5603 5599 5597 5597 5600 5601 5603 5606 5608 5608 5612 5614 5616 5620 5623 5625 5626 5626 5626 5625 5618 5618 5609 5607 5608 5611 5613 5619 5620 5621 5626 5628 5627 5628 5627 5628
5594 5590 5588 5587 5587 5587 5586 5586 5584 5581 5580 5580 5581 5581 5585 5586 5588 5590 5592 5596 5601 5606 5611 5613 5616 5614 5617 5617 5615 5610 5609 5604 5602 5604 5601 5606 5611 5617 5617 5619 5619 5619 5620